Rolla, MO

4:06 PM CDT on April 23, 2017 (GMT -0500)
Rolla National

Weather History for KVIH - August, 2013

Change the Weather History Date:

Friday, August 23, 2013

  Actual Average Record
Temperature  
Mean Temperature 79 °F 76 °F  
Max Temperature 89 °F 87 °F 98 °F (1962)
Min Temperature 68 °F 64 °F 51 °F (2009)
Degree Days  
Heating Degree Days 0 0  
Month to date heating degree days 2 0  
Since 1 June heating degree days 21 15  
Since 1 July heating degree days 4 1  
Cooling Degree Days 14 11  
Month to date cooling degree days 169 277  
Year to date cooling degree days 775 1001  
Since 1 June cooling degree days 668 894  
Growing Degree Days 28 (Base 50)    
Moisture  
Dew Point 69 °F    
Average Humidity 72    
Maximum Humidity 93    
Minimum Humidity 50    
Precipitation  
Precipitation 0.00 in 0.11 in 1.24 in (1977)
Month to date precipitation 4.29 2.70  
Year to date precipitation 32.98 28.58  
Sea Level Pressure  
Sea Level Pressure 30.06 in    
Wind  
Wind Speed 3 mph (ESE)    
Max Wind Speed 12 mph    
Max Gust Speed 14 mph    
Visibility 9 miles    
Events      
T = Trace of Precipitation, MM = Missing Value Source: NWS Daily Summary

Daily Weather History Graph

Daily Weather History Graph

Search for Another Location

Airport or City:

Trip Planner

Search our weather history database for the weather conditions in past years. The results will help you decide how hot, cold, wet, or windy it might be!

Date:

Astronomy

Aug. 23, 2013 Rise Set
Actual Time 6:29 AM CDT 7:49 PM CDT
Civil Twilight 6:01 AM CDT 8:16 PM CDT
Nautical Twilight 5:28 AM CDT 8:49 PM CDT
Astronomical Twilight 4:54 AM CDT 9:24 PM CDT
Moon 9:12 PM CDT 9:21 AM CDT
Length of Visible Light 14h 15m
Length of Day
13h 20m
Waning Gibbous, 91% of the Moon is Illuminated
Aug 23
Waning Gibbous
Aug 28
Last Quarter
Sep 5
New
Sep 12
First Quarter
Sep 19
Full

Hourly Weather History & Observations

Time (CDT) Temp. Heat Index Dew Point Humidity Pressure Visibility Wind Dir Wind Speed Gust Speed Precip Events Conditions
12:53 AM 69.1 °F - 66.0 °F 90% 30.05 in 10.0 mi Calm Calm - N/A   Clear
1:53 AM 73.0 °F - 68.0 °F 84% 30.05 in 10.0 mi Calm Calm - N/A   Clear
2:53 AM 70.0 °F - 66.9 °F 90% 30.04 in 10.0 mi South 3.5 mph - N/A   Clear
3:53 AM 71.1 °F - 66.9 °F 87% 30.04 in 10.0 mi Calm Calm - N/A   Clear
4:53 AM 71.1 °F - 66.9 °F 87% 30.06 in 9.0 mi SW 4.6 mph - N/A   Clear
5:53 AM 68.0 °F - 66.0 °F 93% 30.06 in 9.0 mi Calm Calm - N/A   Clear
6:53 AM 69.1 °F - 66.9 °F 93% 30.07 in 7.0 mi Calm Calm - N/A   Clear
7:53 AM 75.9 °F - 71.1 °F 85% 30.08 in 8.0 mi Calm Calm - N/A   Clear
8:53 AM 79.0 °F - 71.1 °F 77% 30.09 in 10.0 mi Calm Calm - N/A   Clear
9:53 AM 82.0 °F 86.7 °F 72.0 °F 71% 30.09 in 10.0 mi Variable 3.5 mph - N/A   Clear
10:53 AM 84.0 °F 89.0 °F 71.1 °F 65% 30.09 in 10.0 mi Calm Calm - N/A   Clear
11:53 AM 86.0 °F 89.4 °F 68.0 °F 55% 30.08 in 10.0 mi Variable 3.5 mph - N/A   Clear
12:53 PM 87.1 °F 91.3 °F 69.1 °F 55% 30.08 in 10.0 mi East 4.6 mph - N/A   Scattered Clouds
1:53 PM 87.1 °F 89.2 °F 66.0 °F 49% 30.06 in 10.0 mi Calm Calm - N/A   Clear
2:53 PM 87.1 °F 89.9 °F 66.9 °F 51% 30.04 in 10.0 mi East 5.8 mph - N/A   Clear
3:53 PM 88.0 °F 92.1 °F 69.1 °F 53% 30.02 in 10.0 mi Variable 4.6 mph - N/A   Clear
4:53 PM 88.0 °F 90.7 °F 66.9 °F 49% 30.01 in 10.0 mi Calm Calm - N/A   Mostly Cloudy
5:53 PM 86.0 °F 90.7 °F 70.0 °F 59% 30.01 in 10.0 mi ESE 3.5 mph - N/A   Mostly Cloudy
6:53 PM 84.0 °F 90.2 °F 73.0 °F 69% 30.03 in 10.0 mi East 3.5 mph - N/A   Partly Cloudy
7:53 PM 77.0 °F - 70.0 °F 79% 30.04 in 7.0 mi ESE 9.2 mph - N/A   Mostly Cloudy
8:53 PM 75.0 °F - 70.0 °F 84% 30.05 in 8.0 mi ESE 6.9 mph - N/A   Partly Cloudy
9:53 PM 73.9 °F - 69.1 °F 85% 30.06 in 8.0 mi ESE 5.8 mph - N/A   Clear
10:53 PM 73.0 °F - 69.1 °F 87% 30.06 in 7.0 mi ESE 8.1 mph - N/A   Clear
11:53 PM 71.1 °F - 69.1 °F 93% 30.06 in 6.0 mi ESE 6.9 mph - N/A   Clear